Regional Weather Roundup
Issued by NWS

Home | Current Version | Previous Version | Graphics & Text | Print | Product List | Glossary On
Versions: 1 2 3 4 5 6 7 8 9 10 11 12 13 14 15 16 17 18 19 20 21 22 23 24 25 26 27 28 29 30 31 32 33 34 35 36 37 38 39 40 41 42 43 44 45 46 47 48 49 50
000
ASUS43 KDMX 230901
RWRIA

WEATHER ROUNDUP FOR IOWA
NATIONAL WEATHER SERVICE DES MOINES IA
300 AM CST FRI FEB 23 2018

NOTE: "FAIR" INDICATES FEW OR NO CLOUDS BELOW 12,000 FEET WITH NO
SIGNIFICANT WEATHER AND/OR OBSTRUCTIONS TO VISIBILITY.

* - THESE STATIONS ARE NOT NWS STATIONS...THUS NOT UNDER NWS
QUALITY CONTROL.  THEY ALSO DO NOT REPORT WEATHER SUCH
AS PRECIPITATION OR FOG.

IAZ001>003-012>014-020>022-031>034-043>046-231000-
   NORTHWEST IOWA

CITY           SKY/WX    TMP DP  RH WIND       PRES   REMARKS
CARROLL *      CLOUDY    30  28  93 W12       30.13S WCI  21
CHEROKEE *     CLOUDY    26  25  99 W7        30.14R WCI  18
DENISON *      CLOUDY    27  27 100 W9        30.16R WCI  17
LE MARS *      MOCLDY    23  21  93 SW7       30.16R WCI  15
ORANGE CITY *  CLOUDY    23  23 100 W10       30.13R WCI  12
SHELDON *      CLOUDY    23  23 100 W13       30.10R FOG     WCI  11
SIOUX CITY     PTCLDY    23  20  88 W9        30.17R WCI  13
SPENCER        CLOUDY    26  23  88 W13       30.11R WCI  15
STORM LAKE *   CLOUDY    25  25 100 W13       30.11S FOG     WCI  13
$$

IAZ055>058-069>071-079>083-090>094-231000-
   SOUTHWEST IOWA

CITY           SKY/WX    TMP DP  RH WIND       PRES   REMARKS
ATLANTIC *     CLOUDY    30  30 100 W9        30.15S WCI  22
AUDUBON *      CLOUDY    30  27  86 W5        30.14F WCI  25
CLARINDA *     CLOUDY    32  32 100 W7        30.20S WCI  26
COUNCIL BLFS * CLOUDY    28  28 100 W8        30.16F WCI  20
CRESTON *      CLOUDY    32  32 100 W16       30.15R WCI  21
HARLAN  *      CLOUDY    28  28 100 W10       30.18S WCI  19
LAMONI         CLOUDY    32  30  92 W9        30.13S WCI  24
RED OAK *      CLOUDY    32  32 100 W10       30.18R WCI  24
SHENANDOAH *   CLOUDY    32  32 100 W7        30.20R WCI  26
$$

IAZ047>049-059>061-072>074-084-231000-
   CENTRAL IOWA

CITY           SKY/WX    TMP DP  RH WIND       PRES   REMARKS
AMES           CLOUDY    33  31  92 SW8       30.11F WCI  26
ANKENY *       CLOUDY    32  32 100 W5        30.14R FOG     WCI  27
BOONE *        CLOUDY    32  32 100 MISG      30.10S
CHARITON *     CLOUDY    32  32 100 SW6       30.12F WCI  26
DES MOINES     CLOUDY    33  31  92 W9        30.13S WCI  25
GRINNELL*      CLOUDY    32  32  99 SW7       30.11F FOG     WCI  26
KNOXVILLE *    CLOUDY    32  32 100 SW5       30.11S FOG     WCI  27
MARSHALLTOWN   CLOUDY    32  32 100 SW7       30.09S FOG     WCI  26
NEWTON *       CLOUDY    32  32 100 SW6       30.10F FOG     WCI  26
PELLA *        CLOUDY    33  32  98 SW3       30.12F FOG
$$

IAZ004>006-015-016-023>025-035-036-231000-
   NORTH CENTRAL IOWA

CITY           SKY/WX    TMP DP  RH WIND       PRES   REMARKS
CLARION *      CLOUDY    32  32 100 W12       30.09F WCI  23
ESTHERVILLE    CLOUDY    26  23  88 W14       30.08S WCI  14
FORT DODGE *   CLOUDY    31  30  96 W10       30.10F WCI  22
MASON CITY     CLOUDY    32  30  92 SW10      30.08S WCI  24
FOREST CITY *  CLOUDY    32  32 100 SW6       30.07F WCI  26
WEBSTER CITY * CLOUDY    32  32 100 SW14      30.08F WCI  22
IOWA FALLS *   CLOUDY    33  32  98 SW7       30.09F WCI  27
$$

IAZ007>011-017>019-026>030-037>042-050>054-066-231000-
   NORTHEAST IOWA

CITY           SKY/WX    TMP DP  RH WIND       PRES   REMARKS
CEDAR RAPIDS   LGT RAIN  36 N/A N/A SW6       30.09F WCI  31
CHARLES CITY * CLOUDY    32  32 100 S5        30.07F FOG     WCI  27
CLINTON *      LGT RAIN  38  38 100 SE9       30.09F FOG     WCI  31
DECORAH *      LGT RAIN  32  32 100 S5        30.08S WCI  27
DUBUQUE        MIX PCPN  35  34  96 S10       30.08S VSB 1   WCI  27
MONTICELLO *   CLOUDY    36  36 100 SW5       30.11F FOG     WCI  32
OELWEIN *      CLOUDY    34  34 100 SE7       30.07F FOG     WCI  28
WATERLOO       CLOUDY    33  33 100 S3        30.07F FOG
$$

IAZ064-065-067-068-078-231000-
   EAST CENTRAL IOWA

CITY           SKY/WX    TMP DP  RH WIND       PRES   REMARKS
DAVENPORT      LGT RAIN  39  38  96 S6        30.11F FOG     WCI  35
IOWA CITY      LGT RAIN  38  38 100 SW6       30.13F FOG     WCI  33
MT. PLEASANT * DRIZZLE   36  36 100 W8        30.14F WCI  29
MUSCATINE *    CLOUDY    39  39 100 W7        30.14R FOG     WCI  34
QUAD CITIES    LGT RAIN  40  40 100 SE5       30.08F FOG
$$

IAZ062-063-075>077-085>089-095>099-231000-
   SOUTHEAST IOWA

CITY           SKY/WX    TMP DP  RH WIND       PRES   REMARKS
BURLINGTON     LGT RAIN  39  39 100 SW14      30.13R FOG     WCI  31
FAIRFIELD *    CLOUDY    36  36 100 CALM      30.11F FOG
FORT MADISON * CLOUDY    37  37 100 W6        30.15R FOG     WCI  33
KEOKUK *       CLOUDY    37  37 100 W10       30.14S FOG     WCI  30
OSKALOOSA *    FOG       32  32  99 W3        30.12F VSB 1
OTTUMWA        CLOUDY    34  34 100 W5        30.11F WCI  30
WASHINGTON *   CLOUDY    36  36 100 SW7       30.14F FOG     WCI  30
$$

ABBREVIATIONS USED IN REMARKS
   TC - TEMPERATURES IN CELSIUS
  WCI - WIND CHILL INDEX
   HX - HEAT INDEX
  VSB - VISIBILITY
$$





USA.gov is the U.S. government's official web portal to all federal, state and local government web resources and services.